Regional Weather Roundup
Issued by NWS

Home | Current Version | Previous Version | Graphics & Text | Print | Product List | Glossary On
Versions: 1 2 3 4 5 6 7 8 9 10 11 12 13 14 15 16 17 18 19 20 21 22 23 24 25 26 27 28 29 30 31 32 33 34 35 36 37 38 39 40 41 42 43 44 45 46 47 48 49 50
000
ASUS45 KSLC 070710
RWRUT

UTAH REGIONAL WEATHER ROUNDUP
NATIONAL WEATHER SERVICE SALT LAKE CITY UT
1200 AM MST SUN FEB 07 2016

UTZ001>011-023>025-070800-

NORTHERN UTAH

CITY           SKY/WX    TMP DP  RH WIND       PRES   REMARKS
BRIGHAM CITY   CLOUDY    22  20  91 CALM      30.51R
HILL AFB       CLOUDY    28  15  58 SE5       30.48R WCI  23
LOGAN          CLOUDY    24  21  88 NE5       30.49R WCI  18
OGDEN          CLOUDY    27  21  78 S6        30.49R WCI  20
PROVO AIRPORT  PTCLDY    16  12  86 CALM      30.51R
SALT LAKE CITY MOCLDY    29  21  72 SE7       30.50R WCI  22
VERNAL         CLOUDY    11   7  84 CALM      30.46F
WENDOVER       PTCLDY    25  21  86 CALM      30.51R
HEBER CITY     PTCLDY    16  12  86 CALM      30.47R
WEST JORDAN    CLEAR     27  21  80 CALM      30.49S

$$

UTZ012>022-026-027-070800-

SOUTHERN/CENTRAL UTAH

CITY           SKY/WX    TMP DP  RH WIND       PRES   REMARKS
BLANDING       PTCLDY    21  15  79 N3        30.49S
BRYCE CANYON   PTCLDY    14   6  70 W12       30.44F WCI   0
CEDAR CITY     PTCLDY    12   9  87 SE3       30.42S
DELTA          CLOUDY     6   4  89 NE3       30.50R
HANKSVILLE     CLOUDY    18  18 100 CALM      30.56S
MILFORD        MOCLDY     6   3  87 W3        30.47R
MOAB/CYNLANDS  MOCLDY     7   4  87 CALM      30.52R FOG
PRICE          PTCLDY    11   6  81 CALM      30.44S
ST GEORGE      MOSUNNY   39  25  56 CALM      30.42S
KANAB          CLEAR     32  27  80 N6        30.45F WCI  26

$$

REGIONAL REPORTS     COLORADO/ARIZONA

CITY           SKY/WX    TMP DP  RH WIND       PRES   REMARKS
CRAIG, CO      CLOUDY     8   4  83 CALM      30.41S
GRAND JUNCTION CLOUDY    13  10  88 E3        30.52R
RIFLE          CLOUDY    13   7  77 S3        30.48R
MONTROSE       CLOUDY    12   7  80 S3        30.48S
CORTEZ         CLOUDY    14  10  84 E8        30.43R WCI   3
PAGE, AZ       CLEAR     29  23  78 E3        30.46S
GRAND CANYON   CLEAR     22  16  78 NE3       30.42S
KINGMAN        CLEAR     41  22  46 NE6       30.34R
FLAGSTAFF      CLEAR     18  13  80 CALM      30.42R

$$

REGIONAL REPORTS    NEVADA/IDAHO/WYOMING

CITY           SKY/WX    TMP DP  RH WIND       PRES   REMARKS
LAS VEGAS, NV  CLEAR     47  27  45 SW3       30.31S
ELY            PTCLDY    10   3  73 S16       30.47R WCI  -7
ELKO           MOCLDY    15   9  76 CALM      30.50F
POCATELLO, ID  CLOUDY    35  26  69 SW13      30.42S WCI  26
BURLEY         MOCLDY    36  27  69 W9        30.42R WCI  29
EVANSTON, WY   CLOUDY    27  15  61 W18       30.40S WCI  14
ROCK SPRINGS   CLOUDY    27  15  61 SW14G23   30.32R WCI  16

$$



USA.gov is the U.S. government's official web portal to all federal, state and local government web resources and services.